Regional Weather Roundup
Issued by NWS

Home | Current Version | Previous Version | Text Only | Print | Product List | Glossary On
Versions: 1 2 3 4 5 6 7 8 9 10 11 12 13 14 15 16 17 18 19 20 21 22 23 24 25 26 27 28 29 30 31 32 33 34 35 36 37 38 39 40 41 42 43 44 45 46 47 48 49 50
000
ASUS43 KTOP 241859
RWRKS

WEATHER ROUNDUP FOR KANSAS
NATIONAL WEATHER SERVICE GOODLAND KS
200 PM CDT TUE APR 24 2018

NOTE:  "FAIR" INDICATES FEW OR NO CLOUDS BELOW 12,000 FEET WITH NO
SIGNIFICANT WEATHER AND/OR OBSTRUCTIONS TO VISIBILITY.

KSZ001>006-013>018-027>032-041>047-242000-
NORTHWEST KANSAS

CITY           SKY/WX    TMP DP  RH WIND       PRES   REMARKS
GOODLAND       CLOUDY    40  37  89 N24G35    30.34F WCI  29
HAYS           LGT RAIN  46  44  93 N20       30.26F FOG
HILL CITY      LGT RAIN  44  43  96 N20G25    30.30S FOG
RUSSELL        LGT RAIN  48  47  96 NW18      30.24F
$$

KSZ061>065-074>080-084>089-242000-
SOUTHWEST KANSAS

CITY           SKY/WX    TMP DP  RH WIND       PRES   REMARKS
DODGE CITY     CLOUDY    48  40  73 N23G32    30.25F
GARDEN CITY    CLOUDY    43  39  86 N26G38    30.28F
GREAT BEND     CLOUDY    50  44  80 NW23G30   30.24R
LIBERAL        CLOUDY    50  40  68 N25       30.26S
$$

KSZ066>073-081>083-090>101-242000-
SOUTHEAST KANSAS

CITY           SKY/WX    TMP DP  RH WIND       PRES   REMARKS
CHANUTE        SUNNY     77  33  20 N7G18     30.09F
COFFEYVILLE    SUNNY     77  37  23 VRB5      30.08F
HUTCHINSON     PTSUNNY   71  49  45 NW22G29   30.14F
MEDICINE LODGE   N/A     70  51  51 NW23G33   30.14S
NEWTON         MOSUNNY   74  38  27 NW13      30.13S
PARSONS        SUNNY     77  35  21 N9        30.09F
WICHITA INTL   PTSUNNY   77  38  24 VRB7G17   30.12S
WICHITA JABRA  MOSUNNY   75  34  22 NW8       30.11F
WICHITA MCCONL MOSUNNY   76  35  23 NW9       30.11S
WINFIELD       SUNNY     74  39  28 NW7       30.11F
$$

KSZ007>012-019>026-033>040-048>060-102>105-242000-
NORTHEAST KANSAS

CITY           SKY/WX    TMP DP  RH WIND       PRES   REMARKS
CONCORDIA      CLOUDY    53  43  68 NW28G37   30.20R
EMPORIA        SUNNY     76  34  21 N8        30.09F
LAWRENCE       MOSUNNY   77  32  19 N12       30.08F
MANHATTAN      CLOUDY    76  33  21 VRB3      30.10F
OLATHE IND     SUNNY     76  35  22 NE12      30.09F
OLATHE EXE     SUNNY     74  33  22 NE9       30.09F
SALINA         CLOUDY    68  48  48 NW24      30.16R
TOPEKA BILLARD PTSUNNY   77  35  21 N8        30.09F
TOPEKA FORBES  MOSUNNY   77  33  20 VRB7      30.09F
$$



USA.gov is the U.S. government's official web portal to all federal, state and local government web resources and services.